User: anonymous   Login
Location: Nag� el Ma?a??a
(24.0667°N, 32.8833°E)
Time: 23:57:01
(UTC+00:00)
Language:

Cosmos 2369 Rocket - Orbit

View from above orbital plane
View from above orbital plane
View from above satellite
View from above satellite

Ground track
Ground track

The orbit data is extracted from the following two-line orbital elements,

1 26070U 00006B   21333.46741285 -.00000285  00000-0 -12113-3 0  9998
2 26070  70.9991 139.4809 0015330  30.7465 329.4553 14.15473463127619
Epoch (UTC): 29 November 2021 11:13:04
Eccentricity: 0.0015330
inclination: 70.9991°
perigee height: 829 km
apogee height: 852 km
right ascension of ascending node: 139.4809°
argument of perigee: 30.7465°
revolutions per day: 14.15473463
mean anomaly at epoch: 329.4553°
orbit number at epoch: 12761

The dashed part of the orbit path shows where the satellite is in the earth's shadow,  

DLR